{"data":{"norad_id":67191,"epoch":"2026-05-24T15:00:53.355456Z","epoch_age_seconds":103483,"freshness":"FRESH","line1":"1 67191U 25303AE  26144.62561754  .00010653  00000+0  39593-3 0  9996","line2":"2 67191  42.9996 242.2889 0001390 273.6436  86.4257 15.27592608 24344","mean_motion":15.27592608,"eccentricity":0.000139,"inclination_deg":42.9996,"raan_deg":242.2889,"arg_perigee_deg":273.6436,"mean_anomaly_deg":86.4257,"bstar":0.00039593,"rev_number":2434,"period_min":94.265970682152,"perigee_km":482.05764379188,"apogee_km":483.96504303134,"semimajor_km":6861.1483434116,"source":"CELESTRAK","updated_at":"2026-05-25T13:38:21.486015Z"}}